TimeEDT,TemperatureF,Dew PointF,Humidity,Sea Level PressureIn,VisibilityMPH,Wind Direction,Wind SpeedMPH,Gust SpeedMPH,PrecipitationIn,Events,Conditions,WindDirDegrees,DateUTC
12:54 AM,71.1,68.0,90,30.14,8.0,SSW,4.6,-,N/A,,Clear,200,2013-09-10 04:54:00
1:54 AM,69.1,68.0,96,30.15,7.0,SW,3.5,-,N/A,,Clear,220,2013-09-10 05:54:00
2:54 AM,69.1,68.0,96,30.16,6.0,SSW,3.5,-,N/A,,Clear,210,2013-09-10 06:54:00
3:54 AM,68.0,66.9,96,30.17,5.0,Calm,Calm,-,N/A,,Clear,0,2013-09-10 07:54:00
4:54 AM,66.9,66.9,100,30.17,4.0,Calm,Calm,-,N/A,,Clear,0,2013-09-10 08:54:00
5:09 AM,66.0,66.0,100,30.21,1.5,Calm,Calm,-,N/A,,Clear,0,2013-09-10 09:09:00
5:27 AM,66.9,66.9,100,30.21,2.5,Calm,Calm,-,N/A,,Clear,0,2013-09-10 09:27:00
5:43 AM,66.0,66.0,100,30.21,1.2,Calm,Calm,-,N/A,,Clear,0,2013-09-10 09:43:00
5:54 AM,66.0,66.0,100,30.18,1.8,Calm,Calm,-,N/A,,Clear,0,2013-09-10 09:54:00
5:58 AM,66.0,66.0,100,30.21,3.0,Calm,Calm,-,N/A,,Clear,0,2013-09-10 09:58:00
6:07 AM,64.9,64.9,100,30.22,2.0,Calm,Calm,-,N/A,,Clear,0,2013-09-10 10:07:00
6:21 AM,66.0,66.0,100,30.22,3.0,Calm,Calm,-,N/A,,Clear,0,2013-09-10 10:21:00
6:39 AM,66.0,66.0,100,30.23,2.5,Calm,Calm,-,N/A,,Clear,0,2013-09-10 10:39:00
6:54 AM,66.0,66.0,100,30.20,4.0,Calm,Calm,-,N/A,,Clear,0,2013-09-10 10:54:00
7:00 AM,66.0,64.9,96,30.23,1.5,Calm,Calm,-,N/A,,Clear,0,2013-09-10 11:00:00
7:06 AM,64.9,64.9,100,30.23,0.5,Calm,Calm,-,N/A,Fog,Fog,0,2013-09-10 11:06:00
7:15 AM,66.0,64.9,96,30.24,1.0,Calm,Calm,-,N/A,,Clear,0,2013-09-10 11:15:00
7:41 AM,66.0,66.0,100,30.25,2.0,Calm,Calm,-,N/A,,Clear,0,2013-09-10 11:41:00
7:54 AM,66.9,66.9,100,30.22,2.5,Calm,Calm,-,N/A,,Clear,0,2013-09-10 11:54:00
8:37 AM,73.0,70.0,90,30.25,3.0,Calm,Calm,-,N/A,,Clear,0,2013-09-10 12:37:00
8:54 AM,75.0,71.1,87,30.23,5.0,Calm,Calm,-,N/A,,Clear,0,2013-09-10 12:54:00
9:54 AM,79.0,70.0,74,30.24,10.0,SSW,3.5,-,N/A,,Clear,200,2013-09-10 13:54:00
10:54 AM,81.0,70.0,69,30.23,10.0,Calm,Calm,-,N/A,,Clear,0,2013-09-10 14:54:00
11:54 AM,84.0,69.1,61,30.22,10.0,SSW,4.6,-,N/A,,Partly Cloudy,210,2013-09-10 15:54:00
12:54 PM,86.0,69.1,57,30.21,10.0,North,4.6,-,N/A,,Clear,350,2013-09-10 16:54:00
1:54 PM,88.0,68.0,51,30.20,10.0,Variable,4.6,-,N/A,,Clear,0,2013-09-10 17:54:00
2:54 PM,88.0,66.9,49,30.18,10.0,Variable,3.5,-,N/A,,Clear,0,2013-09-10 18:54:00
3:54 PM,89.1,66.9,48,30.16,10.0,Variable,3.5,-,N/A,,Clear,0,2013-09-10 19:54:00
4:54 PM,86.0,66.0,51,30.15,10.0,ESE,3.5,-,N/A,,Scattered Clouds,120,2013-09-10 20:54:00
5:54 PM,87.1,66.9,51,30.14,10.0,SE,4.6,-,N/A,,Clear,140,2013-09-10 21:54:00
6:54 PM,84.9,66.0,53,30.14,10.0,Calm,Calm,-,N/A,,Clear,0,2013-09-10 22:54:00
7:54 PM,77.0,66.9,71,30.16,10.0,Calm,Calm,-,N/A,,Clear,0,2013-09-10 23:54:00
8:54 PM,73.9,68.0,82,30.18,10.0,Calm,Calm,-,N/A,,Scattered Clouds,0,2013-09-11 00:54:00
9:54 PM,72.0,68.0,87,30.20,8.0,SSW,3.5,-,N/A,,Clear,200,2013-09-11 01:54:00
10:54 PM,71.1,68.0,90,30.22,9.0,SSW,3.5,-,N/A,,Clear,210,2013-09-11 02:54:00
11:54 PM,69.1,66.9,93,30.21,7.0,SSW,5.8,-,N/A,,Clear,200,2013-09-11 03:54:00